Date String (YYYY-MM-DD hh:mm:ss) UTC,Instrument flags,absolute air pressure of the measurement (hPa),sample flow rate (lpm),inlet stack bypass flow (lpm),air temperature of the measurement (°C),ambient temperature measured by the external sensor (°C),aerosol sample conditioner tube jacket temperature (°C),OPC LED temperature (°C),internal box temperature (°C),relative humidity of the measurement (%),span deviation,mass concentration of particles derived from Lorenz-Mie calculation of OPC scattering (μg/m³),mass concentration of particles derived from Lorenz-Mie calculation of OPC scattering (μg/m³),mass concentration of particles derived from Lorenz-Mie calculation of OPC scattering (μg/m³)
DateTimeUTC,F1_M11,P_M11,Q1_M11,Q2_M11,T1_M11,T2_M11,T3_M11,T4_M11,T5_M11,U1_M11,ZSPAN_M11,X2_M11,X0_M11,X1_M11
2023-06-28 19:00:00,SystemResetWarning,0829.2,4.98,000.00,030.6,027.3,000.0,038.9,031.4,34.1,0003.1,0010.72,0027.93,0008.86
2023-06-28 19:01:00,SystemResetWarning,0829.1,5.00,000.00,030.7,025.6,000.0,038.8,031.3,33.3,0002.8,0010.77,0029.06,0008.85
2023-06-28 19:02:00,SystemResetWarning,0829.1,5.00,000.00,030.6,024.8,000.0,038.8,031.2,32.8,0003.0,0010.75,0028.97,0008.84
2023-06-28 19:03:00,SystemResetWarning,0829.1,5.01,000.00,030.6,024.8,000.0,038.7,031.0,33.8,0003.0,0010.72,0028.76,0008.81
2023-06-28 19:04:00,SystemResetWarning,0829.1,5.00,000.00,030.4,025.2,000.0,038.7,030.8,34.1,0002.8,0010.66,0028.89,0008.79
2023-06-28 19:05:00,SystemResetWarning,0829.0,5.00,000.00,030.4,025.7,000.0,038.7,030.8,34.2,0002.6,0010.64,0030.18,0008.78
2023-06-28 19:06:00,SystemResetWarning,0828.9,4.99,000.00,030.3,026.2,000.0,038.7,030.9,34.9,0002.9,0010.71,0030.87,0008.77
2023-06-28 19:07:00,SystemResetWarning,0829.0,5.01,000.00,030.4,026.6,000.0,038.7,031.0,34.8,0003.1,0010.75,0030.62,0008.76
2023-06-28 19:08:00,SystemResetWarning,0829.0,4.99,000.00,030.5,027.0,000.0,038.7,031.2,35.0,0003.2,0010.80,0029.60,0008.77
2023-06-28 19:09:00,SystemResetWarning,0829.0,5.00,000.00,030.7,027.3,000.0,038.7,031.3,34.2,0002.8,0010.84,0028.50,0008.79
2023-06-28 19:10:00,SystemResetWarning,0829.0,4.99,000.00,030.8,027.5,000.0,038.7,031.3,33.7,0002.6,0010.85,0028.47,0008.81
2023-06-28 19:11:00,SystemResetWarning,0829.0,5.00,000.00,030.8,027.8,000.0,038.8,031.4,33.8,0002.7,0010.85,0026.30,0008.85
2023-06-28 19:12:00,SystemResetWarning,0829.0,5.00,000.00,030.9,027.7,000.0,038.8,031.5,33.3,0002.9,0010.85,0025.45,0008.89
2023-06-28 19:13:00,SystemResetWarning,0829.0,4.99,000.00,030.9,026.1,000.0,038.8,031.4,33.6,0003.1,0010.85,0026.64,0008.92
2023-06-28 19:14:00,SystemResetWarning,0828.9,5.00,000.00,030.9,024.9,000.0,038.7,031.4,33.9,0003.2,0010.88,0027.61,0008.96
2023-06-28 19:15:00,SystemResetWarning,0828.9,5.01,000.00,030.9,024.8,000.0,038.7,031.2,34.6,0003.2,0010.95,0027.70,0009.01
2023-06-28 19:16:00,SystemResetWarning,0828.9,5.01,000.00,030.8,025.1,000.0,038.7,030.9,33.9,0003.3,0011.03,0026.69,0009.04
2023-06-28 19:17:00,SystemResetWarning,0829.0,4.98,000.00,030.7,025.6,000.0,038.8,030.9,34.4,0003.2,0011.06,0025.40,0009.06
2023-06-28 19:18:00,SystemResetWarning,0828.9,5.01,000.00,030.7,026.1,000.0,038.8,031.0,35.0,0003.2,0011.09,0025.64,0009.09
2023-06-28 19:19:00,SystemResetWarning,0828.9,5.02,000.00,030.8,026.5,000.0,038.8,031.1,34.4,0003.0,0011.08,0026.13,0009.10
2023-06-28 19:20:00,SystemResetWarning,0829.0,4.98,000.00,030.8,026.9,000.0,038.8,031.2,33.9,0003.1,0011.08,0026.56,0009.11
2023-06-28 19:21:00,SystemResetWarning,0828.9,4.99,000.00,030.9,027.2,000.0,038.8,031.3,34.2,0003.5,0011.03,0025.54,0009.09
2023-06-28 19:22:00,SystemResetWarning,0828.9,5.02,000.00,030.9,027.5,000.0,038.9,031.3,33.9,0003.7,0011.04,0025.06,0009.06
2023-06-28 19:23:00,SystemResetWarning,0829.0,5.01,000.00,031.0,027.8,000.0,038.9,031.4,34.0,0003.9,0011.07,0023.28,0009.05
2023-06-28 19:24:00,SystemResetWarning,0829.0,4.99,000.00,031.0,027.4,000.0,038.9,031.5,33.1,0003.8,0011.08,0022.71,0009.02
2023-06-28 19:25:00,SystemResetWarning,0828.9,5.00,000.00,031.0,025.7,000.0,038.9,031.4,33.5,0003.9,0011.07,0022.94,0009.00
2023-06-28 19:26:00,SystemResetWarning,0828.8,5.00,000.00,031.0,024.8,000.0,038.8,031.4,33.4,0003.8,0011.05,0022.65,0008.98
2023-06-28 19:27:00,SystemResetWarning,0828.8,5.01,000.00,030.9,024.9,000.0,038.8,031.2,34.1,0003.9,0011.04,0023.22,0008.97
2023-06-28 19:28:00,SystemResetWarning,0828.8,5.01,000.00,030.7,025.2,000.0,038.8,030.9,34.4,0004.0,0011.02,0022.80,0008.95
2023-06-28 19:29:00,SystemResetWarning,0828.8,4.98,000.00,030.7,025.7,000.0,038.8,030.9,35.0,0003.9,0011.01,0022.97,0008.93
2023-06-28 19:30:00,SystemResetWarning,0828.8,5.00,000.00,030.7,026.2,000.0,038.8,031.0,35.6,0003.7,0011.00,0023.54,0008.90
2023-06-28 19:31:00,SystemResetWarning,0828.7,5.01,000.00,030.9,026.6,000.0,038.8,031.2,35.9,0003.6,0010.95,0024.01,0008.88
2023-06-28 19:32:00,SystemResetWarning,0828.8,5.00,000.00,031.2,027.0,000.0,038.9,031.4,35.9,0003.4,0010.99,0025.01,0008.88
2023-06-28 19:33:00,SystemResetWarning,0828.8,4.99,000.00,031.5,027.3,000.0,038.9,031.6,34.0,0003.5,0010.99,0026.04,0008.88
2023-06-28 19:34:00,SystemResetWarning,0828.8,4.99,000.00,031.8,027.6,000.0,039.0,031.7,34.1,0003.3,0010.92,0027.04,0008.87
2023-06-28 19:35:00,SystemResetWarning,0828.8,5.01,000.00,031.9,027.8,000.0,039.1,031.7,32.9,0003.2,0010.85,0027.16,0008.87
2023-06-28 19:36:00,SystemResetWarning,0828.8,5.00,000.00,032.0,026.9,000.0,039.1,031.8,32.0,0002.6,0010.90,0027.79,0008.87
2023-06-28 19:37:00,SystemResetWarning,0828.8,4.99,000.00,032.1,025.3,000.0,039.2,031.6,32.3,0002.2,0010.97,0029.23,0008.89
2023-06-28 19:38:00,SystemResetWarning,0828.7,5.02,000.00,032.1,024.8,000.0,039.2,031.6,32.6,0002.1,0010.93,0029.27,0008.89
2023-06-28 19:39:00,SystemResetWarning,0828.7,5.00,000.00,031.9,025.0,000.0,039.3,031.2,33.9,0002.0,0010.89,0029.45,0008.89
2023-06-28 19:40:00,SystemResetWarning,0828.7,5.00,000.00,031.8,025.4,000.0,039.3,031.1,34.4,0001.4,0010.83,0029.53,0008.88
2023-06-28 19:41:00,SystemResetWarning,0828.7,4.98,000.00,031.7,025.9,000.0,039.4,031.1,34.7,0001.6,0010.77,0029.98,0008.88
2023-06-28 19:42:00,SystemResetWarning,0828.7,5.01,000.00,031.7,026.4,000.0,039.4,031.2,33.8,0001.9,0010.80,0028.61,0008.88
2023-06-28 19:43:00,SystemResetWarning,0828.8,5.01,000.00,031.7,026.8,000.0,039.5,031.3,33.7,0002.4,0010.79,0028.10,0008.87
2023-06-28 19:44:00,SystemResetWarning,0828.7,5.00,000.00,031.7,027.1,000.0,039.5,031.4,33.6,0002.6,0010.84,0028.08,0008.89
2023-06-28 19:45:00,SystemResetWarning,0828.8,5.00,000.00,031.7,027.5,000.0,039.5,031.5,34.0,0002.8,0010.88,0027.94,0008.90
2023-06-28 19:46:00,SystemResetWarning,0828.8,4.98,000.00,031.6,027.7,000.0,039.5,031.6,34.7,0002.7,0010.90,0028.16,0008.91
2023-06-28 19:47:00,SystemResetWarning,0828.8,5.01,000.00,031.7,027.2,000.0,039.5,031.6,34.7,0003.0,0010.92,0026.95,0008.92
2023-06-28 19:48:00,SystemResetWarning,0828.8,4.98,000.00,031.8,025.5,000.0,039.5,031.5,33.4,0003.3,0010.89,0026.23,0008.93
2023-06-28 19:49:00,SystemResetWarning,0828.8,5.00,000.00,031.8,024.7,000.0,039.4,031.5,33.3,0003.3,0010.99,0026.05,0008.96
2023-06-28 19:50:00,SystemResetWarning,0828.8,5.02,000.00,031.8,024.8,000.0,039.4,031.3,33.2,0003.3,0011.10,0027.63,0008.99
2023-06-28 19:51:00,SystemResetWarning,0828.8,4.97,000.00,031.5,025.2,000.0,039.4,031.1,34.7,0003.5,0011.19,0027.88,0009.05
2023-06-28 19:52:00,SystemResetWarning,0828.8,5.03,000.00,031.5,025.7,000.0,039.4,031.1,34.1,0003.3,0011.29,0027.25,0009.09
2023-06-28 19:53:00,SystemResetWarning,0828.8,4.98,000.00,031.5,026.2,000.0,039.4,031.2,34.1,0003.3,0011.32,0027.31,0009.12
2023-06-28 19:54:00,SystemResetWarning,0828.8,4.99,000.00,031.5,026.7,000.0,039.4,031.3,34.1,0003.6,0011.36,0027.13,0009.16
2023-06-28 19:55:00,SystemResetWarning,0828.7,5.02,000.00,031.5,027.1,000.0,039.4,031.5,34.3,0003.7,0011.34,0026.55,0009.20
2023-06-28 19:56:00,SystemResetWarning,0828.7,5.00,000.00,031.5,027.4,000.0,039.5,031.5,34.5,0003.8,0011.45,0025.99,0009.23
2023-06-28 19:57:00,SystemResetWarning,0828.7,4.99,000.00,031.5,027.7,000.0,039.5,031.6,33.9,0003.8,0011.55,0026.11,0009.25
2023-06-28 19:58:00,SystemResetWarning,0828.7,4.99,000.00,031.5,027.5,000.0,039.5,031.7,34.1,0003.8,0011.61,0026.19,0009.27
2023-06-28 19:59:00,SystemResetWarning,0828.7,4.99,000.00,031.5,025.8,000.0,039.4,031.7,33.6,0003.5,0011.58,0026.59,0009.29
